This demonstration page uses our WeatherBlox Daily Observations layout. Learn more.

Left ArrowRight Arrow

38.89511, -77.03637

Hourly Observations for July 19, 2015

Temp ( °F °C ) Dew Point ( °F °C ) Humidity (%) Winds ( mph kmh ) Pressure ( in mb ) Visibility ( mi km ) Precip ( " mm )
12:52 am 00:52 Mostly Clear 81 27.2 75 23.9 82 82 SW 8 13 29.92 1013 10 16 0.00 0.00
1:52 am 01:52 Mostly Clear 80 26.7 75 23.9 85 85 S 7 11 29.89 1012 10 16 0.00 0.00
2:52 am 02:52 Clear 80 26.7 75 23.9 85 85 SSW 6 9 29.88 1012 9 14 0.00 0.00
3:52 am 03:52 Mostly Cloudy 79 26.1 75 23.9 88 88 Calm 29.87 1012 9 14 0.00 0.00
4:52 am 04:52 Mostly Cloudy 79 26.1 75 23.9 88 88 SSW 5 7 29.88 1012 9 14 0.00 0.00
5:52 am 05:52 Mostly Cloudy 79 26.1 74 23.3 85 85 SW 3 6 29.89 1012 10 16 0.00 0.00
6:52 am 06:52 Partly Cloudy 79 26.1 75 23.9 88 88 SSW 3 6 29.90 1013 8 13 0.00 0.00
7:52 am 07:52 Partly Cloudy 81 27.2 76 24.4 85 85 S 3 6 29.91 1013 9 14 0.00 0.00
8:52 am 08:52 Partly Cloudy 83 28.3 77 25 82 82 SSE 5 7 29.91 1013 10 16 0.00 0.00
9:52 am 09:52 Partly Cloudy 86 30 77 25 75 75 S 5 7 29.90 1013 10 16 0.00 0.00
10:52 am 10:52 Partly Cloudy 90 32.2 76 24.4 63 63 Calm 29.91 1013 10 16 0.00 0.00
11:52 am 11:52 Partly Cloudy 93 33.9 73 22.8 52 52 E 3 6 29.89 1012 10 16 0.00 0.00
12:52 pm 12:52 Partly Cloudy 94 34.4 76 24.4 56 56 S 7 11 29.89 1012 10 16 0.00 0.00
1:52 pm 13:52 Mostly Cloudy 93 33.9 77 25 60 60 S 13 20 29.86 1011 10 16 0.00 0.00
2:52 pm 14:52 Mostly Cloudy 94 34.4 76 24.4 56 56 S 8 13 29.86 1011 10 16 0.00 0.00
3:52 pm 15:52 Mostly Cloudy 96 35.6 73 22.8 47 47 VRB 5 7 29.85 1011 10 16 0.00 0.00
4:52 pm 16:52 Mostly Cloudy 95 35 74 23.3 51 51 SSW 9 15 29.82 1010 10 16 0.00 0.00
5:52 pm 17:52 Mostly Cloudy 95 35 74 23.3 51 51 SSW 9 15 29.81 1010 10 16 0.00 0.00
6:52 pm 18:52 Partly Cloudy 94 34.4 74 23.3 52 52 SSW 12 19 29.80 1009 10 16 0.00 0.00
7:52 pm 19:52 Mostly Cloudy 92 33.3 74 23.3 56 56 SW 9 15 29.80 1009 10 16 0.00 0.00
8:52 pm 20:52 Mostly Cloudy 91 32.8 74 23.3 57 57 WSW 7 11 29.80 1009 10 16 0.00 0.00
9:52 pm 21:52 Mostly Cloudy 90 32.2 74 23.3 59 59 SW 8 13 29.81 1009 10 16 0.00 0.00
10:52 pm 22:52 Mostly Cloudy 86 30 78 25.6 77 77 S 5 7 29.81 1010 10 16 0.00 0.00
11:52 pm 23:52 Mostly Cloudy 85 29.4 78 25.6 80 80 S 7 11 29.81 1010 10 16 0.00 0.00

Powered by AerisWeather